Temp
57 58 59 59 61 61 62 61 61 61 61 61 61 61 61 62 61 60 60 60 60 61 61 61 61 61 61 62 63 62 62 62 62 62 61 60 60 58 58 58 58 58
56 57 57 58 59 59 60 61 61 61 61 62 62 62 62 61 61 60 60 60 60 60 61 61 61 61 61 61 62 62 62 62 61 62 61 60 60 60 59 58 58 59
53 54 56 57 58 59 60 60 60 61 62 62 62 62 62 61 61 60 60 60 60 60 60 61 61 61 61 60 61 61 61 61 61 62 61 61 61 60 60 59 59 58
51 53 54 56 57 58 59 59 59 60 60 60 61 62 62 62 61 60 60 58 60 60 60 60 60 61 61 61 60 60 60 61 61 61 61 61 61 61 61 60 60 59
51 52 52 54 55 56 57 58 58 59 59 60 61 61 60 60 60 60 59 59 59 59 60 60 60 60 60 60 60 60 60 60 60 60 60 60 61 61 61 60 60 59
50 50 51 52 53 54 55 55 57 58 59 59 60 60 60 60 60 59 59 58 58 59 59 59 60 60 60 60 60 60 60 59 60 59 59 59 60 61 61 61 60 59
51 51 52 52 51 52 53 54 56 56 57 58 58 58 59 59 58 59 59 59 59 58 58 59 59 59 60 60 59 59 59 59 59 59 58 59 59 59 60 60 60 59
49 50 50 50 50 51 51 52 53 55 56 55 55 58 57 58 58 59 58 58 58 58 58 58 59 59 59 59 59 58 58 59 59 58 58 58 58 58 58 59 59 58
47 48 48 47 48 49 49 50 51 51 52 53 54 55 55 56 57 57 57 57 58 57 58 58 58 58 58 58 58 58 58 58 58 58 57 57 57 57 58 58 58 57
46 45 44 44 43 45 45 47 47 48 49 50 52 53 53 54 54 56 56 56 56 56 56 57 57 56 56 56 58 58 57 58 58 57 57 57 57 57 57 56 57 57
43 42 41 42 43 42 43 44 44 44 45 47 48 50 52 52 53 52 53 54 55 56 56 56 56 57 57 56 56 56 57 57 57 57 57 57 57 57 53 56 57 56
43 41 41 41 41 41 41 42 43 43 45 45 46 49 49 50 51 51 51 53 53 54 55 55 56 55 55 56 56 56 55 56 56 56 56 56 57 57 57 57 57 57
42 42 41 40 40 40 40 41 42 42 43 45 44 45 46 47 48 49 49 49 51 52 53 54 55 55 55 55 56 56 55 55 55 55 55 55 56 57 57 58 58 58
41 40 40 40 40 40 40 41 41 41 42 42 42 43 44 45 47 48 48 47 49 50 52 52 53 53 54 54 55 55 54 54 54 54 54 55 55 56 57 57 57 58
39 39 40 39 39 40 40 41 41 40 40 41 41 42 43 43 45 46 46 47 48 49 50 50 51 52 53 53 53 54 54 55 55 55 54 55 56 56 57 57 57 57
37 36 38 37 38 39 39 39 39 39 39 39 40 40 40 41 41 42 43 44 45 47 48 50 51 53 48 46 46 51 54 55 55 54 54 55 55 55 56 56 57 57
38 39 37 37 37 37 37 38 39 38 37 38 38 38 39 39 38 40 41 42 43 44 45 46 49 51 45 47 47 46 48 53 54 55 55 55 55 55 55 55 55 56
38 38 38 38 37 37 37 37 36 36 36 37 37 37 37 35 36 38 39 40 41 41 42 43 44 43 45 45 45 45 43 47 50 52 54 55 55 55 55 55 55 55
37 37 37 37 37 37 36 36 35 35 36 36 36 36 35 36 37 37 37 37 38 39 39 40 40 42 43 43 43 43 43 43 47 48 49 51 53 54 53 53 53 52
35 35 36 36 36 36 36 36 36 36 35 34 34 34 35 35 35 35 36 36 37 37 38 38 39 40 42 42 42 42 43 43 44 45 46 48 49 51 53 54 54 53
35 34 35 35 35 35 35 35 35 35 35 35 34 34 34 35 35 35 35 35 35 36 36 37 38 40 41 41 42 42 42 42 42 43 44 45 47 49 50 51 52 53
33 33 33 34 34 34 34 35 35 34 34 34 34 34 34 33 34 33 34 35 35 35 35 36 37 40 40 40 41 41 42 41 42 42 42 43 44 46 47 49 50 51
32 32 32 32 33 33 33 33 34 34 34 33 33 34 33 34 34 34 34 34 34 35 34 35 35 37 39 39 40 41 40 40 40 41 41 42 43 44 45 46 47 47
31 31 31 31 31 32 32 33 33 33 33 33 33 33 33 34 34 34 34 33 34 34 34 34 35 35 38 39 39 40 39 39 39 39 40 40 41 42 43 44 44 39
31 30 30 30 31 31 32 32 32 32 33 33 32 32 33 34 34 34 34 33 33 33 33 34 35 36 37 38 39 39 38 38 38 38 38 38 39 40 40 41 42 40
31 30 30 30 30 31 31 31 32 32 32 32 32 33 32 32 32 33 33 34 33 33 34 34 34 35 35 38 38 39 39 38 38 37 36 37 38 38 38 39 40 40
MSLP
1011.77 1011.77 1011.73 1011.69 1011.57 1011.45 1011.41 1011.45 1011.45 1011.49 1011.41 1011.37 1011.41 1011.29 1011.33 1011.17 1011.33 1011.53 1011.57 1011.65 1011.65 1011.69 1011.65 1011.69 1011.73 1011.81 1011.89 1011.93 1011.97 1012.05 1012.09 1012.09 1012.09 1012.09 1012.17 1012.29 1012.33 1012.45 1012.45 1012.49 1012.49 1012.45
1011.61 1011.65 1011.61 1011.57 1011.45 1011.29 1011.21 1011.13 1011.13 1011.13 1010.97 1010.89 1010.81 1010.77 1010.69 1010.77 1010.81 1010.97 1011.05 1011.13 1011.13 1011.13 1011.13 1011.17 1011.25 1011.33 1011.41 1011.49 1011.49 1011.57 1011.53 1011.57 1011.53 1011.57 1011.61 1011.69 1011.69 1011.85 1011.77 1011.93 1011.93 1011.97
1011.49 1011.45 1011.41 1011.37 1011.25 1011.05 1010.97 1010.89 1010.85 1010.69 1010.57 1010.37 1010.37 1010.33 1010.29 1010.33 1010.41 1010.45 1010.49 1010.53 1010.61 1010.61 1010.69 1010.69 1010.77 1010.81 1010.85 1010.89 1011.01 1011.09 1011.05 1011.05 1011.05 1011.01 1011.09 1011.05 1011.17 1011.21 1011.09 1011.37 1011.37 1011.49
1011.21 1011.25 1011.21 1011.09 1010.97 1010.81 1010.69 1010.69 1010.49 1010.37 1010.29 1010.25 1010.09 1009.97 1009.97 1009.93 1009.97 1009.97 1010.05 1010.09 1010.13 1010.13 1010.17 1010.25 1010.25 1010.29 1010.33 1010.41 1010.57 1010.57 1010.53 1010.49 1010.41 1010.57 1010.53 1010.49 1010.53 1010.57 1010.57 1010.77 1010.69 1010.81
1010.97 1010.93 1010.93 1010.85 1010.69 1010.61 1010.53 1010.45 1010.25 1010.13 1010.05 1009.85 1009.73 1009.73 1009.81 1009.73 1009.69 1009.65 1009.61 1009.61 1009.61 1009.61 1009.65 1009.69 1009.73 1009.81 1009.89 1009.93 1010.05 1010.05 1010.05 1010.05 1009.97 1010.13 1010.09 1009.97 1009.85 1010.05 1009.93 1010.17 1010.05 1010.09
1010.89 1010.89 1010.77 1010.65 1010.57 1010.53 1010.45 1010.25 1010.01 1009.89 1009.77 1009.73 1009.57 1009.49 1009.41 1009.37 1009.41 1009.33 1009.25 1009.25 1009.21 1009.21 1009.17 1009.13 1009.13 1009.13 1009.25 1009.33 1009.45 1009.41 1009.45 1009.49 1009.41 1009.57 1009.49 1009.37 1009.29 1009.33 1009.33 1009.37 1009.37 1009.33
1010.65 1010.57 1010.49 1010.57 1010.61 1010.53 1010.45 1010.21 1009.97 1009.81 1009.65 1009.45 1009.33 1009.21 1009.13 1009.13 1009.09 1008.97 1008.89 1008.85 1008.85 1008.85 1008.77 1008.69 1008.69 1008.65 1008.65 1008.73 1008.77 1008.73 1008.77 1008.73 1008.77 1008.89 1008.85 1008.73 1008.81 1008.73 1008.73 1008.73 1008.69 1008.65
1010.57 1010.53 1010.61 1010.73 1010.69 1010.57 1010.49 1010.29 1010.09 1009.93 1009.65 1009.45 1009.29 1008.89 1008.89 1008.81 1008.69 1008.57 1008.57 1008.57 1008.53 1008.41 1008.41 1008.33 1008.29 1008.21 1008.17 1008.25 1008.21 1008.21 1008.17 1008.17 1008.21 1008.29 1008.29 1008.17 1008.25 1008.17 1008.17 1008.21 1008.21 1008.25
1010.65 1010.53 1010.73 1010.73 1010.73 1010.61 1010.53 1010.37 1010.21 1010.05 1009.85 1009.69 1009.37 1009.01 1008.77 1008.65 1008.49 1008.37 1008.29 1008.21 1008.17 1008.09 1008.05 1007.97 1007.93 1007.93 1007.85 1007.89 1007.77 1007.77 1007.65 1007.61 1007.57 1007.65 1007.69 1007.69 1007.77 1007.57 1007.57 1007.73 1007.85 1007.77
1010.57 1010.77 1010.73 1010.65 1010.57 1010.57 1010.45 1010.29 1010.21 1010.09 1009.93 1009.73 1009.41 1009.13 1008.85 1008.57 1008.49 1008.33 1008.17 1008.05 1007.93 1007.81 1007.81 1007.69 1007.65 1007.57 1007.53 1007.49 1007.37 1007.29 1007.21 1007.09 1007.13 1007.17 1007.17 1007.17 1007.13 1007.09 1007.17 1007.37 1007.33 1007.33
1010.53 1010.81 1010.73 1010.57 1010.49 1010.53 1010.37 1010.29 1010.17 1010.05 1009.89 1009.69 1009.41 1009.13 1008.85 1008.57 1008.29 1008.21 1008.09 1007.93 1007.73 1007.57 1007.45 1007.33 1007.25 1007.17 1007.13 1007.09 1007.05 1006.97 1006.89 1006.77 1006.77 1006.73 1006.69 1006.65 1006.57 1006.61 1006.69 1006.81 1006.81 1006.73
1010.69 1010.81 1010.77 1010.81 1010.77 1010.61 1010.49 1010.33 1010.17 1009.97 1009.69 1009.53 1009.37 1009.09 1008.81 1008.61 1008.41 1008.13 1007.97 1007.73 1007.57 1007.37 1007.21 1007.01 1006.89 1006.85 1006.81 1006.69 1006.61 1006.57 1006.61 1006.53 1006.45 1006.45 1006.33 1006.25 1006.21 1006.21 1006.25 1006.29 1006.25 1006.17
1011.09 1011.09 1011.13 1011.09 1010.97 1010.85 1010.69 1010.45 1010.17 1009.93 1009.69 1009.37 1009.17 1009.05 1008.85 1008.57 1008.33 1008.13 1007.89 1007.77 1007.45 1007.33 1007.05 1006.85 1006.65 1006.57 1006.53 1006.45 1006.29 1006.25 1006.21 1006.21 1006.17 1006.13 1006.01 1005.93 1005.81 1005.73 1005.69 1005.69 1005.61 1005.57
1011.53 1011.45 1011.29 1011.17 1011.05 1010.93 1010.73 1010.49 1010.25 1009.97 1009.69 1009.45 1009.25 1008.97 1008.73 1008.53 1008.25 1008.01 1007.77 1007.69 1007.45 1007.25 1007.01 1006.85 1006.69 1006.45 1006.37 1006.25 1006.17 1006.05 1005.97 1005.85 1005.77 1005.65 1005.57 1005.45 1005.29 1005.21 1005.17 1005.13 1005.05 1004.97
1011.81 1011.65 1011.45 1011.25 1011.05 1010.85 1010.65 1010.45 1010.29 1010.05 1009.77 1009.49 1009.25 1008.93 1008.69 1008.45 1008.25 1008.13 1007.93 1007.65 1007.41 1007.21 1006.93 1006.77 1006.65 1006.45 1006.29 1006.13 1006.01 1005.85 1005.73 1005.53 1005.29 1005.17 1005.09 1004.97 1004.73 1004.61 1004.49 1004.45 1004.41 1004.29
1011.97 1011.81 1011.57 1011.41 1011.13 1010.89 1010.73 1010.61 1010.37 1010.09 1009.85 1009.57 1009.25 1008.97 1008.69 1008.45 1008.29 1008.21 1008.13 1007.89 1007.57 1007.25 1007.05 1006.81 1006.57 1006.33 1006.13 1005.97 1005.85 1005.69 1005.45 1005.21 1004.97 1004.77 1004.65 1004.49 1004.29 1004.09 1003.89 1003.81 1003.73 1003.69
1011.97 1011.81 1011.69 1011.49 1011.29 1011.13 1010.89 1010.69 1010.41 1010.21 1009.97 1009.65 1009.33 1009.09 1008.81 1008.49 1008.37 1008.05 1007.85 1007.73 1007.53 1007.29 1007.01 1006.81 1006.61 1006.33 1006.13 1005.89 1005.65 1005.57 1005.49 1005.09 1004.69 1004.33 1004.17 1004.01 1003.77 1003.57 1003.41 1003.29 1003.25 1003.17
1012.01 1011.85 1011.65 1011.49 1011.37 1011.17 1011.01 1010.89 1010.65 1010.37 1010.01 1009.73 1009.45 1009.09 1008.81 1008.73 1008.45 1008.05 1007.81 1007.57 1007.37 1007.25 1007.09 1006.89 1006.65 1006.45 1006.21 1005.93 1005.77 1005.65 1005.57 1005.41 1005.01 1004.53 1004.01 1003.61 1003.29 1003.13 1002.97 1002.85 1002.77 1002.73
1012.09 1011.97 1011.81 1011.57 1011.41 1011.29 1011.13 1010.97 1010.73 1010.41 1010.09 1009.77 1009.45 1009.29 1009.09 1008.73 1008.37 1008.17 1007.89 1007.65 1007.45 1007.09 1006.85 1006.73 1006.73 1006.53 1006.29 1006.05 1005.93 1005.73 1005.57 1005.49 1005.09 1004.65 1004.37 1003.81 1003.37 1003.01 1002.77 1002.65 1002.65 1002.61
1012.29 1012.17 1012.01 1011.81 1011.57 1011.37 1011.17 1010.97 1010.69 1010.45 1010.25 1010.05 1009.77 1009.41 1009.13 1008.77 1008.45 1008.21 1007.93 1007.69 1007.45 1007.17 1006.85 1006.69 1006.49 1006.17 1006.01 1005.89 1005.81 1005.65 1005.53 1005.41 1005.09 1004.73 1004.33 1003.85 1003.45 1003.13 1002.77 1002.45 1002.17 1002.17
1012.25 1012.21 1012.09 1011.93 1011.73 1011.57 1011.33 1011.05 1010.85 1010.57 1010.29 1010.09 1009.85 1009.57 1009.21 1008.81 1008.53 1008.17 1007.93 1007.77 1007.53 1007.29 1007.01 1006.69 1006.49 1006.17 1005.89 1005.65 1005.49 1005.37 1005.29 1005.17 1004.89 1004.61 1004.25 1003.81 1003.37 1003.09 1002.85 1002.49 1002.13 1001.89
1012.41 1012.29 1012.13 1011.97 1011.81 1011.61 1011.41 1011.09 1010.81 1010.73 1010.45 1010.05 1009.81 1009.49 1009.21 1008.97 1008.61 1008.41 1007.97 1007.65 1007.41 1007.29 1007.01 1006.65 1006.33 1006.09 1005.81 1005.61 1005.49 1005.29 1005.13 1004.97 1004.73 1004.37 1003.97 1003.65 1003.37 1003.21 1002.97 1002.49 1002.13 1002.01
1012.61 1012.45 1012.25 1012.05 1011.93 1011.77 1011.49 1011.25 1010.97 1010.57 1010.33 1010.21 1009.93 1009.49 1009.17 1008.77 1008.45 1008.17 1007.97 1007.73 1007.41 1007.21 1006.97 1006.57 1006.29 1006.01 1005.77 1005.57 1005.41 1005.25 1005.05 1004.85 1004.57 1004.25 1003.85 1003.49 1003.13 1003.01 1002.85 1002.57 1002.37 1002.21
1012.65 1012.49 1012.29 1012.13 1012.01 1011.85 1011.61 1011.33 1011.09 1010.85 1010.61 1010.37 1010.21 1009.65 1009.13 1008.73 1008.41 1007.97 1007.69 1007.57 1007.33 1007.05 1006.89 1006.57 1006.17 1005.97 1005.77 1005.49 1005.29 1005.09 1005.01 1004.77 1004.49 1004.13 1003.65 1003.37 1003.01 1002.81 1002.69 1002.45 1002.25 1002.29
1012.73 1012.49 1012.25 1012.05 1011.93 1011.77 1011.61 1011.37 1011.09 1010.85 1010.49 1010.33 1010.09 1009.81 1009.33 1008.85 1008.45 1008.01 1007.45 1007.21 1007.09 1006.89 1006.69 1006.53 1006.13 1005.81 1005.61 1005.37 1005.09 1004.93 1004.81 1004.69 1004.45 1004.13 1003.69 1003.25 1003.01 1002.61 1002.49 1002.41 1002.13 1002.09
1012.73 1012.57 1012.29 1012.01 1011.69 1011.49 1011.37 1011.21 1010.97 1010.73 1010.45 1010.13 1009.77 1009.57 1009.17 1008.73 1008.41 1008.01 1007.41 1006.85 1006.73 1006.57 1006.41 1006.25 1005.93 1005.61 1005.41 1005.13 1004.97 1004.77 1004.61 1004.53 1004.37 1004.13 1003.65 1003.21 1002.93 1002.69 1002.25 1002.05 1002.01 1001.81
Wind_Speed
6 5 7 7 8 9 9 9 8 9 9 9 9 9 10 10 8 9 11 11 12 13 13 13 13 12 12 13 13 12 12 14 13 12 14 14 14 15 15 16 16 14
5 5 6 6 7 7 8 8 8 8 10 10 9 9 9 8 9 9 10 11 12 13 13 13 12 13 13 12 13 13 12 12 14 11 13 15 14 14 16 17 17 15
4 5 5 7 8 9 9 8 8 9 10 10 9 9 9 7 9 8 10 11 11 12 13 13 13 13 13 13 12 12 13 13 14 13 14 14 13 14 14 14 14 15
4 5 5 6 7 8 8 7 8 9 8 9 10 9 8 8 8 9 9 10 11 11 11 12 13 13 12 13 12 12 13 13 13 13 13 12 13 13 14 12 14 13
5 5 5 6 6 7 7 8 9 9 9 10 9 8 8 8 9 9 9 10 10 11 11 12 12 12 12 12 12 12 12 12 13 13 13 14 13 12 13 12 14 15
5 5 6 6 6 5 7 7 8 8 9 9 10 8 9 9 9 9 10 10 9 10 11 11 12 12 12 13 12 13 12 12 12 13 15 15 14 13 11 12 15 16
6 6 7 5 6 6 7 8 8 8 8 8 7 9 8 9 9 10 10 10 10 10 11 11 11 12 11 11 12 13 13 14 13 13 15 15 13 15 14 14 15 16
6 6 5 5 6 7 7 8 8 7 7 7 7 9 7 9 10 10 9 9 10 11 11 11 11 12 11 11 12 13 14 12 13 14 15 15 13 15 14 13 14 14
5 6 5 5 6 7 7 8 8 7 6 8 9 9 7 8 9 9 9 9 10 10 10 11 11 11 10 11 12 13 14 13 13 13 15 15 15 16 15 13 14 14
5 5 6 6 5 6 7 7 7 7 6 7 8 8 9 8 7 8 9 9 9 10 10 10 10 10 10 10 12 13 13 14 13 13 13 14 15 15 14 13 14 14
7 6 5 6 7 6 7 7 6 7 6 7 7 8 8 8 8 6 8 8 10 10 10 10 11 11 11 11 11 11 12 13 12 12 13 14 14 14 13 13 13 14
7 7 7 7 7 7 7 7 7 6 7 6 6 8 8 8 8 7 7 9 9 10 10 11 10 10 10 11 11 11 11 11 11 11 12 13 13 13 13 12 13 14
7 7 8 8 8 8 8 7 7 7 7 7 6 6 7 8 8 8 7 7 9 8 10 10 10 9 10 10 11 10 10 11 11 11 12 11 12 13 12 13 13 14
6 7 7 8 7 7 7 7 7 7 7 7 6 7 7 7 8 9 8 6 8 7 9 8 8 8 8 9 9 9 9 10 10 11 12 12 12 12 12 12 13 14
6 5 6 6 7 7 8 8 8 8 7 7 6 7 6 6 7 7 8 8 7 7 7 7 8 9 7 8 9 10 9 11 12 12 12 12 13 13 13 13 13 14
5 5 6 6 7 7 8 8 8 8 9 8 8 7 7 6 6 6 7 8 9 8 7 7 7 7 9 14 13 10 10 10 11 11 11 12 13 13 13 13 14 13
6 7 6 7 6 6 7 8 9 8 8 8 8 8 8 7 6 7 7 6 7 8 8 7 7 8 12 13 13 15 12 11 12 12 12 12 13 13 14 13 12 12
6 7 8 8 7 7 7 7 7 8 8 8 8 9 8 7 7 7 7 6 6 6 7 7 7 9 13 14 13 12 10 8 9 10 11 11 12 12 11 11 11 11
7 8 8 8 8 8 8 8 7 8 7 8 9 8 7 8 8 8 7 7 6 8 8 6 6 9 13 14 13 14 14 11 9 9 9 10 10 10 9 8 6 7
6 7 8 9 9 9 9 9 8 9 8 6 7 7 7 8 7 8 8 7 7 8 8 7 7 9 12 13 13 13 14 13 10 11 11 12 12 11 11 12 13 14
7 7 8 8 9 9 9 9 8 8 9 8 7 8 8 9 9 9 8 7 8 7 8 8 7 12 13 13 12 12 13 12 9 10 10 12 12 11 12 12 12 11
5 6 7 7 8 9 9 10 9 8 9 9 8 8 6 6 7 5 8 8 7 7 8 9 8 11 13 12 12 11 13 9 8 9 10 10 10 11 11 12 12 11
4 5 6 6 7 8 9 10 10 12 10 6 9 9 9 9 8 7 6 7 8 7 8 9 8 9 12 12 12 13 11 8 8 8 9 10 10 9 9 10 10 10
4 4 5 5 5 6 8 8 9 7 7 6 8 11 11 10 9 10 7 5 7 8 7 9 9 9 12 14 15 14 12 9 8 8 10 9 10 9 8 9 10 13
5 4 5 5 5 6 6 8 8 9 9 7 8 8 9 9 8 9 9 5 5 7 8 9 9 9 11 13 14 14 11 7 7 7 10 9 9 10 7 8 9 7
5 6 5 6 7 7 6 6 7 7 8 9 8 7 9 9 8 8 10 9 5 5 6 7 8 8 8 13 13 14 14 9 7 7 9 10 9 9 10 8 7 8
Wind_Direction
249 243 245 244 246 245 248 246 239 240 241 239 237 238 235 237 228 222 222 224 226 230 231 232 231 231 232 233 231 231 231 232 233 231 233 230 232 231 235 234 234 234
258 253 253 255 260 254 252 248 250 242 245 241 239 241 241 237 230 220 222 224 225 229 231 233 232 230 231 231 230 231 232 231 235 230 236 231 234 232 236 235 237 238
272 269 260 254 254 258 254 252 247 248 247 246 244 239 242 233 236 224 225 224 227 229 230 232 233 231 230 230 230 231 232 233 235 233 235 235 234 234 237 234 238 236
273 254 258 261 259 263 262 258 254 252 253 255 248 245 239 239 234 233 230 225 228 230 230 230 231 233 232 232 230 233 232 234 235 235 238 239 236 237 238 235 238 237
280 285 267 262 263 263 268 263 262 260 255 253 258 252 249 245 239 237 233 230 225 230 229 230 229 231 230 233 229 235 232 237 234 234 238 240 237 235 237 234 238 238
283 269 273 271 273 276 273 264 265 265 264 264 259 256 249 246 245 242 239 237 232 231 231 231 229 228 225 228 228 231 232 233 234 230 235 238 238 233 236 234 236 238
284 292 290 291 291 283 277 276 275 270 268 264 270 259 254 251 246 246 244 241 239 236 234 234 232 232 226 227 227 230 230 232 233 229 235 237 237 239 235 237 237 240
278 285 295 309 304 300 292 288 288 288 283 286 268 266 256 255 249 250 247 246 244 243 240 239 239 237 233 228 230 230 233 230 232 231 235 237 235 240 236 236 240 242
286 294 318 316 315 307 305 300 299 297 297 290 284 280 273 259 260 256 254 250 250 248 247 246 243 242 239 233 234 232 234 233 230 230 233 236 236 239 239 237 240 240
297 311 324 317 315 305 302 301 300 299 300 294 287 286 283 277 265 265 262 257 255 255 250 251 250 246 243 237 237 235 237 237 235 234 235 236 238 240 239 238 239 243
310 319 319 315 312 310 303 302 301 300 298 292 294 290 285 283 278 262 263 261 259 256 254 251 249 247 247 244 240 240 241 241 240 238 238 239 240 241 239 237 239 239
321 327 325 320 314 311 307 307 306 303 303 299 289 291 294 287 285 283 267 267 261 261 258 257 255 251 249 249 246 242 242 244 244 242 243 243 244 243 241 239 241 243
328 326 323 321 319 315 313 312 309 305 303 301 301 294 294 295 291 284 277 269 271 269 267 264 262 257 254 252 251 249 246 245 244 245 246 245 245 245 243 241 242 243
328 323 325 320 318 316 314 310 308 309 305 301 305 303 298 292 293 293 291 282 279 274 273 275 272 269 263 260 258 255 252 249 245 246 247 246 246 245 243 243 242 243
323 326 322 324 323 324 323 321 318 312 310 308 306 301 295 292 292 297 301 298 290 283 283 276 273 271 266 262 261 261 253 254 251 248 246 248 249 248 245 244 243 242
329 324 328 325 329 329 323 318 317 317 317 316 313 307 302 300 306 303 295 293 298 296 290 288 283 280 273 270 265 263 263 260 259 254 251 251 252 252 250 245 245 246
339 337 333 332 325 320 318 321 321 319 317 313 312 312 311 312 312 305 299 295 294 296 299 293 290 291 294 288 283 273 267 268 263 259 253 252 251 249 249 247 245 245
342 336 336 331 330 325 321 317 314 315 315 314 314 317 315 315 307 295 296 294 294 294 293 294 295 296 295 297 303 307 303 292 285 281 276 260 252 249 250 250 249 248
342 341 333 330 330 326 321 320 317 313 315 320 318 311 310 311 304 305 298 295 291 290 287 284 286 293 299 302 306 308 309 309 291 284 280 278 275 269 262 261 264 266
340 338 333 328 327 326 326 323 321 318 312 303 302 309 308 305 303 299 297 295 290 289 288 289 283 277 283 289 293 297 301 303 292 289 281 275 275 275 277 275 268 262
345 341 332 328 327 325 323 319 316 315 316 315 314 310 310 308 308 308 301 295 293 289 289 290 284 283 282 283 286 291 294 291 285 283 281 277 276 273 272 271 270 266
338 332 328 327 327 327 326 323 322 319 317 319 316 309 295 289 289 278 290 297 293 294 293 289 288 284 287 292 294 296 296 292 286 283 279 277 277 278 277 275 276 277
324 319 319 319 321 323 321 320 322 322 320 318 314 309 310 309 302 296 290 291 293 292 291 290 293 295 296 298 301 298 298 288 287 284 281 281 277 275 274 278 280 282
311 308 307 309 310 311 310 307 307 299 297 309 309 310 310 305 306 303 292 281 287 289 287 293 294 297 296 296 295 292 288 288 285 284 281 280 284 278 276 274 273 276
303 299 297 299 300 297 296 299 301 302 302 303 293 290 286 293 298 297 296 284 266 273 279 279 284 288 287 287 288 291 291 286 284 284 286 285 286 286 278 275 281 275
307 303 297 295 298 293 287 283 287 296 298 300 298 290 294 297 294 291 294 295 285 276 274 268 277 280 278 277 280 283 283 282 280 282 283 286 285 287 294 284 275 275